Regional Weather Roundup
Issued by NWS

Home | Current Version | Previous Version | Graphics & Text | Print | Product List | Glossary On
Versions: 1 2 3 4 5 6 7 8 9 10 11 12 13 14 15 16 17 18 19 20 21 22 23 24 25 26 27 28 29 30 31 32 33 34 35 36 37 38 39 40 41 42 43 44 45 46 47 48 49 50
724
ASUS44 KLIX 291910
RWRLA
LOUISIANA WEATHER ROUNDUP
NATIONAL WEATHER SERVICE NEW ORLEANS LA
200 PM CDT FRI AUG 29 2014

NOTE: "FAIR" INDICATES FEW OR NO CLOUDS BELOW 12,000 FEET WITH NO
      SIGNIFICANT WEATHER AND/OR OBSTRUCTIONS TO VISIBILITY.
      SKY/WX - SKY CONDITION AND SIGNIFICANT WEATHER.
      TMP - AIR TEMPERATURE.    DP   - DEWPOINT TEMPERATURE.
      RH  - RELATIVE HUMIDITY.  PRES - PRESSURE.
      HX  - HEAT INDEX.         WCI  - WIND CHILL INDEX.

*  THESE STATIONS ARE NOT NWS OR FAA STATIONS AND ARE NOT UNDER
   NWS QUALITY CONTROL.

LAZ040-048-061>063-065-066-069-292000-
SOUTHEAST LOUISIANA

CITY           SKY/WX    TMP DP  RH WIND       PRES   REMARKS
N.O. AUDUBON     N/A     76  75  97 MISG        N/A
N.O. INTL ARPT LGT RAIN  76  73  91 S5        29.97F
N.O. LAKEFRONT CLOUDY    77  75  93 S8        29.97F
N.O. DOWNTOWN* MOCLDY    79  72  78 S6        29.97F
SLIDELL        CLOUDY    85  76  74 E3        29.96F
BATON ROUGE    LGT RAIN  83  75  77 SE7       29.97F
BOOTHVILLE     LGT RAIN  80  77  90 NW6       29.97S
BELLE CHASSE   LGT RAIN  77  73  87 S3        29.97F
BOGALUSA*      FAIR      89  72  57 E8        29.98F HX  96
GALLIANO*      NOT AVBL
NEW ROADS*     MOCLDY    85  74  69 E9        29.97S
GONZALES*      FAIR      78  76  95 S3        29.96F
HAMMOND*       CLOUDY    86  73  66 CALM      29.98F
HOUMA*         LGT RAIN  73  72  94 CALM      29.97F
PORT FOURCHON* PTCLDY    77  73  88 CALM      29.99F FOG

$$

LAZ041-044-053-054-292000-
SOUTHWEST LOUISIANA

CITY           SKY/WX    TMP DP  RH WIND       PRES   REMARKS
LAKE CHARLES   CLOUDY    83  73  72 E8        29.91R
LAFAYETTE      CLOUDY    82  73  74 VRB7      29.96F
PATTERSON        N/A     79  75  89 E10       29.99F
SALT POINT       N/A     84  78  82 VRB7      29.95S HX  95
NEW IBERIA     CLOUDY    83  73  72 E12       29.96F
CHENAULT AIRPK PTSUNNY   84  75  74 SE12      29.92S

$$

LAZ027-028-292000-
CENTRAL LOUISIANA

CITY           SKY/WX    TMP DP  RH WIND       PRES   REMARKS
FORT POLK      PTSUNNY   90  71  53 E8        29.92F HX  96
ALEXANDRIA INT MOSUNNY   91  70  49 SE7       29.92F HX  96
ALEXANDRIA     MOSUNNY   90  71  53 SE6       29.94F HX  96

$$

LAZ001-002-292000-
NORTHWEST LOUISIANA

CITY           SKY/WX    TMP DP  RH WIND       PRES   REMARKS
SHREVEPORT     MOSUNNY   96  66  37 S13G18    29.89F HX  99
BARKSDALE AFB  MOSUNNY   94  65  38 SE8       29.90F HX  96
DTN SHREVEPORT SUNNY     93  68  43 SE13      29.90F HX  97

$$

LAZ014-016-292000-
NORTHEAST LOUISIANA

CITY           SKY/WX    TMP DP  RH WIND       PRES   REMARKS
MONROE         MOSUNNY   90  70  51 S9        29.96R HX  95
TALLULAH       MOSUNNY   93  69  45 S10       29.98R HX  98

$$




USA.gov is the U.S. government's official web portal to all federal, state and local government web resources and services.